Location: Bernay
(48.6766°N, 2.9386°E)
Time: 17:40:51
(UTC+00:00)

Landsat 7 - Pass Details

Date: 12 January 2026
Orbit: 680 x 682 km, 97.9° (Epoch: 18 February)

Event Time Altitude Azimuth Distance (km) Brightness Sun altitude
Rises 17:31:13 0° 175° (S) 3,031 7.3 -12.0°
Reaches altitude 10° 17:33:29 10° 180° (S) 2,121 6.5 -12.4°
Maximum altitude 17:38:04 59° 259° (W) 795 4.4 -13.1°
Drops below altitude 10° 17:42:41 10° 339° (NNW) 2,137 6.4 -13.8°
Sets 17:44:58 0° 344° (NNW) 3,057 7.1 -14.2°
